TimeEDT,TemperatureF,Dew PointF,Humidity,Sea Level PressureIn,VisibilityMPH,Wind Direction,Wind SpeedMPH,Gust SpeedMPH,PrecipitationIn,Events,Conditions,WindDirDegrees,DateUTC
12:15 AM,41.0,37.4,87,30.33,10.0,West,5.8,-,N/A,,Clear,270,2013-04-28 04:15:00
12:55 AM,41.0,37.4,87,30.32,10.0,West,6.9,-,N/A,,Clear,270,2013-04-28 04:55:00
1:15 AM,39.2,35.6,87,30.32,10.0,West,5.8,-,N/A,,Clear,260,2013-04-28 05:15:00
1:35 AM,41.0,35.6,81,30.32,10.0,West,6.9,-,N/A,,Clear,270,2013-04-28 05:35:00
1:55 AM,39.2,33.8,81,30.32,10.0,WNW,5.8,-,N/A,,Clear,290,2013-04-28 05:55:00
2:15 AM,44.6,33.8,66,30.31,10.0,WNW,6.9,-,N/A,,Clear,290,2013-04-28 06:15:00
2:55 AM,44.6,32.0,61,30.30,10.0,WNW,6.9,-,N/A,,Clear,290,2013-04-28 06:55:00
3:15 AM,44.6,32.0,61,30.30,10.0,WNW,5.8,-,N/A,,Clear,290,2013-04-28 07:15:00
3:35 AM,42.8,30.2,61,30.30,10.0,WNW,4.6,-,N/A,,Clear,300,2013-04-28 07:35:00
3:55 AM,42.8,32.0,66,30.30,10.0,Calm,Calm,-,N/A,,Clear,0,2013-04-28 07:55:00
4:15 AM,41.0,30.2,65,30.30,10.0,Calm,Calm,-,N/A,,Clear,0,2013-04-28 08:15:00
4:35 AM,39.2,30.2,70,30.31,10.0,Calm,Calm,-,N/A,,Clear,0,2013-04-28 08:35:00
4:55 AM,37.4,30.2,75,30.30,10.0,Calm,Calm,-,N/A,,Clear,0,2013-04-28 08:55:00
5:15 AM,35.6,32.0,87,30.31,10.0,Calm,Calm,-,N/A,,Clear,0,2013-04-28 09:15:00
5:35 AM,35.6,30.2,81,30.31,10.0,Calm,Calm,-,N/A,,Clear,0,2013-04-28 09:35:00
5:55 AM,33.8,30.2,87,30.31,10.0,Calm,Calm,-,N/A,,Clear,0,2013-04-28 09:55:00
6:15 AM,35.6,30.2,81,30.31,10.0,Calm,Calm,-,N/A,,Clear,0,2013-04-28 10:15:00
6:35 AM,37.4,33.8,87,30.31,10.0,Calm,Calm,-,N/A,,Clear,0,2013-04-28 10:35:00
6:55 AM,39.2,35.6,87,30.32,10.0,Calm,Calm,-,N/A,,Clear,0,2013-04-28 10:55:00
7:15 AM,46.4,37.4,71,30.32,10.0,Calm,Calm,-,N/A,,Clear,0,2013-04-28 11:15:00
7:35 AM,48.2,37.4,66,30.32,10.0,Calm,Calm,-,N/A,,Clear,0,2013-04-28 11:35:00
7:55 AM,50.0,37.4,62,30.33,10.0,Calm,Calm,-,N/A,,Clear,0,2013-04-28 11:55:00
8:15 AM,51.8,39.2,62,30.32,10.0,Calm,Calm,-,N/A,,Clear,0,2013-04-28 12:15:00
8:35 AM,53.6,39.2,58,30.33,10.0,East,3.5,-,N/A,,Clear,90,2013-04-28 12:35:00
9:15 AM,51.8,37.4,58,30.33,10.0,South,4.6,-,N/A,,Clear,170,2013-04-28 13:15:00
9:35 AM,53.6,37.4,54,30.33,10.0,SSE,4.6,-,N/A,,Clear,160,2013-04-28 13:35:00
9:55 AM,53.6,37.4,54,30.33,10.0,SSE,5.8,-,N/A,,Clear,150,2013-04-28 13:55:00
10:15 AM,53.6,35.6,51,30.34,10.0,South,5.8,-,N/A,,Clear,170,2013-04-28 14:15:00
10:35 AM,53.6,35.6,51,30.34,10.0,SSE,6.9,-,N/A,,Clear,160,2013-04-28 14:35:00
10:55 AM,53.6,35.6,51,30.34,10.0,South,8.1,-,N/A,,Clear,170,2013-04-28 14:55:00
11:15 AM,53.6,35.6,51,30.34,10.0,SSE,9.2,-,N/A,,Clear,150,2013-04-28 15:15:00
11:35 AM,53.6,37.4,54,30.35,10.0,SSE,11.5,-,N/A,,Clear,150,2013-04-28 15:35:00
11:55 AM,53.6,37.4,54,30.35,10.0,SSE,9.2,-,N/A,,Clear,150,2013-04-28 15:55:00
12:15 PM,53.6,35.6,51,30.34,10.0,SSE,8.1,-,N/A,,Clear,150,2013-04-28 16:15:00
12:35 PM,53.6,35.6,51,30.33,10.0,South,9.2,-,N/A,,Clear,180,2013-04-28 16:35:00
12:55 PM,53.6,37.4,54,30.32,10.0,South,10.4,-,N/A,,Clear,180,2013-04-28 16:55:00
1:15 PM,53.6,35.6,51,30.32,10.0,SSE,10.4,-,N/A,,Clear,160,2013-04-28 17:15:00
1:35 PM,53.6,35.6,51,30.32,10.0,SSE,11.5,-,N/A,,Clear,150,2013-04-28 17:35:00
1:55 PM,55.4,35.6,47,30.31,10.0,South,10.4,-,N/A,,Clear,190,2013-04-28 17:55:00
2:15 PM,55.4,37.4,51,30.31,10.0,South,10.4,-,N/A,,Clear,190,2013-04-28 18:15:00
2:35 PM,53.6,37.4,54,30.31,10.0,SSW,11.5,-,N/A,,Clear,200,2013-04-28 18:35:00
2:55 PM,53.6,33.8,47,30.31,10.0,South,10.4,-,N/A,,Clear,190,2013-04-28 18:55:00
3:15 PM,55.4,33.8,44,30.30,10.0,South,11.5,-,N/A,,Clear,170,2013-04-28 19:15:00
3:35 PM,55.4,33.8,44,30.29,10.0,SSW,8.1,-,N/A,,Clear,200,2013-04-28 19:35:00
3:55 PM,55.4,35.6,47,30.29,10.0,SSW,9.2,-,N/A,,Clear,200,2013-04-28 19:55:00
4:15 PM,55.4,33.8,44,30.28,10.0,South,10.4,-,N/A,,Clear,190,2013-04-28 20:15:00
4:35 PM,55.4,33.8,44,30.27,10.0,South,10.4,-,N/A,,Clear,190,2013-04-28 20:35:00
4:55 PM,55.4,33.8,44,30.27,10.0,South,9.2,-,N/A,,Clear,190,2013-04-28 20:55:00
5:15 PM,55.4,33.8,44,30.27,10.0,SSW,10.4,-,N/A,,Clear,200,2013-04-28 21:15:00
5:35 PM,55.4,33.8,44,30.27,10.0,South,9.2,-,N/A,,Clear,190,2013-04-28 21:35:00
5:55 PM,53.6,35.6,51,30.26,10.0,SSW,8.1,-,N/A,,Clear,200,2013-04-28 21:55:00
6:15 PM,53.6,35.6,51,30.26,10.0,South,8.1,-,N/A,,Clear,190,2013-04-28 22:15:00
6:35 PM,53.6,35.6,51,30.26,10.0,SSW,6.9,-,N/A,,Clear,200,2013-04-28 22:35:00
6:55 PM,51.8,35.6,54,30.26,10.0,SSW,6.9,-,N/A,,Clear,210,2013-04-28 22:55:00
7:15 PM,51.8,35.6,54,30.26,10.0,SSW,4.6,-,N/A,,Clear,200,2013-04-28 23:15:00
7:35 PM,48.2,37.4,66,30.26,10.0,SSW,4.6,-,N/A,,Clear,200,2013-04-28 23:35:00
7:55 PM,48.2,37.4,66,30.26,10.0,SSW,4.6,-,N/A,,Clear,200,2013-04-28 23:55:00
8:15 PM,46.4,37.4,71,30.27,10.0,SW,4.6,-,N/A,,Clear,220,2013-04-29 00:15:00
8:35 PM,44.6,37.4,76,30.27,10.0,Calm,Calm,-,N/A,,Clear,0,2013-04-29 00:35:00
8:55 PM,44.6,37.4,76,30.28,10.0,Calm,Calm,-,N/A,,Clear,0,2013-04-29 00:55:00
9:15 PM,42.8,37.4,81,30.28,10.0,Calm,Calm,-,N/A,,Clear,0,2013-04-29 01:15:00
9:35 PM,41.0,37.4,87,30.28,10.0,Calm,Calm,-,N/A,,Clear,0,2013-04-29 01:35:00
9:55 PM,39.2,35.6,87,30.27,10.0,Calm,Calm,-,N/A,,Clear,0,2013-04-29 01:55:00
10:15 PM,39.2,35.6,87,30.27,10.0,Calm,Calm,-,N/A,,Clear,0,2013-04-29 02:15:00
10:35 PM,39.2,35.6,87,30.27,10.0,Calm,Calm,-,N/A,,Clear,0,2013-04-29 02:35:00
10:55 PM,39.2,35.6,87,30.27,10.0,Calm,Calm,-,N/A,,Clear,0,2013-04-29 02:55:00
11:15 PM,37.4,35.6,93,30.27,10.0,West,3.5,-,N/A,,Clear,270,2013-04-29 03:15:00
11:35 PM,37.4,37.4,100,30.27,10.0,West,3.5,-,N/A,,Clear,280,2013-04-29 03:35:00
11:55 PM,37.4,33.8,87,30.27,10.0,West,5.8,-,N/A,,Clear,270,2013-04-29 03:55:00